Location: Chippewa Lake
(41.0698°N, 81.9010°W)
Time: 21:34:19
(UTC+00:00)

Cosmos 1959 Rocket - Pass Details

Date: 09 May 2021
Orbit: 946 x 998 km, 82.9° (Epoch: 16 June)

Event Time Altitude Azimuth Distance (km) Brightness Sun altitude
Rises 04:48:22 0° 352° (N) 3,688 8.7 -30.9°
Reaches altitude 10° 04:50:54 10° 353° (N) 2,729 7.7 -31.0°
Enters shadow 04:56:41 77° 358° (N) 992 4.5 -31.2°
